AirNav   Phillips 66 Aviation Fuel
 
 927 users online  

7M0 Mc Crory/Morton Airport
Mc Crory, Arkansas, USA

GOING TO MC CRORY?


FAA INFORMATION EFFECTIVE 13 SEPTEMBER 2018

Location

FAA Identifier: 7M0
Lat/Long: 35-13-42.3000N / 091-05-35.4000W
35-13.705000N / 091-05.590000W
35.2284167 / -91.0931667
(estimated)
Elevation: 222 ft. / 67.7 m (surveyed)
Variation: 03E (1985)
From city: 6 miles SE of MC CRORY, AR
Time zone: UTC -5 (UTC -6 during Standard Time)
Zip code: 72101

Airport Operations

Airport use: Open to the public
Activation date: 06/1964
Control tower: no
ARTCC: MEMPHIS CENTER
FSS: JONESBORO FLIGHT SERVICE STATION
NOTAMs facility: JBR (NOTAM-D service available)
Attendance: UNATNDD
Wind indicator: yes
Segmented circle: no

Airport Communications

CTAF: 122.9

Nearby radio navigation aids

VOR radial/distance  VOR name  Freq  Var
GQEr253/30.9GILMORE VOR/DME113.0004E

Airport Services

Airframe service: NONE
Powerplant service: NONE
Bottled oxygen: NONE
Bulk oxygen: NONE

Runway Information

Runway 18/36

Dimensions: 2400 x 20 ft. / 732 x 6 m
Surface: asphalt, in good condition
RUNWAY 18  RUNWAY 36
Latitude: 35-13.903167N35-13.507500N
Longitude: 091-05.585500W091-05.594333W
Traffic pattern: leftleft
Obstructions: 45 ft. trees, 1800 ft. from runway, 35:1 slope to clear45 ft. trees, 2000 ft. from runway, 40:1 slope to clear

Airport Ownership and Management from official FAA records

Ownership: Privately-owned
Owner: G.L. MORRIS & I.N. ARNOF
P.O. BOX 750
MC CRORY, AR 72101
Phone 870-731-2218
Manager: MARTY REYNOLDS
REYNOLDS FLYING SVC 9358 HWY 269
MC CRORY, AR 72101
Phone (870) 457-2069

Airport Operational Statistics

Aircraft based on the field: 2
Single engine airplanes: 2
    
Aircraft operations: avg 82/day *
100% local general aviation
<1% transient general aviation
* for 12-month period ending 31 August 2016

Instrument Procedures

There are no published instrument procedures at 7M0.

Some nearby airports with instrument procedures:

M60 - Woodruff County Airport (9 nm W)
KDRP - Delta Regional Airport (15 nm SE)
M36 - Frank Federer Memorial Airport (21 nm S)
M19 - Newport Regional Airport (25 nm N)
6M7 - Marianna/Lee County Airport-Steve Edwards Field (30 nm SE)
 
Loc | Ops | Rwys | IFR | FBO | Links
Com | Nav | Svcs | Stats | Notes


 
Area around 7M0 (Mc Crory/Morton Airport)
 
Road maps at: MapQuest Bing Google
 
Aerial photo
WARNING: Photo may not be current or correct
Aerial photo of 7M0 (Mc Crory/Morton Airport)
Do you have a better or more recent aerial photo of Mc Crory/Morton Airport that you would like to share? If so, please send us your photo.

 
Sectional chart

 
Airport distance calculator
Flying to Mc Crory/Morton Airport? Find the distance to fly.

From to 7M0

Sunrise and sunset
Times for 22-Sep-2018
 Local
(UTC-5)
 Zulu
(UTC)
Morning civil twilight06:2811:28
Sunrise06:5311:53
Sunset19:0100:01
Evening civil twilight19:2600:26

Current date and time
Zulu (UTC)  22-Sep-2018 17:43:07
Local (UTC-5)  22-Sep-2018 12:43:07
 
METAR
KM19 
25nm N 
221656Z AUTO 01010KT 9SM -RA OVC007 17/16 A3013 RMK AO2 SLP208 P0002 T01670161
KSRC 
31nm W 
221656Z AUTO 01010KT 10SM -RA OVC009 17/17 A3012 RMK AO2 CIG 007V012 SLP207 P0000 T01720172
KBVX 
40nm NW 
221656Z AUTO VRB03KT 4SM RA BR OVC005 16/16 A3016 RMK AO2 SLP210 P0007 T01560156
KJBR 
42nm NE 
221653Z AUTO 03007KT 3SM RA BR BKN007 BKN015 OVC029 17/17 A3012 RMK AO2 SLP196 T01670167 PNO $
KAWM 
42nm E 
212302Z AUTO 24003KT 1 1/2SM HZ SCT110 27/22 A3000 RMK AO2 LTG DSNT S AND SW T02720217
KSGT 
44nm SW 
221656Z AUTO 02009KT 10SM -RA OVC006 18/17 A3010 RMK AO2 CIG 005V008 SLP190 P0004 T01830172
KUTA 
49nm SE 
221715Z AUTO 34008KT 4SM BR 20/20 A3006 RMK AO2 TSNO
TAF
KJBR 
42nm NE 
221558Z 2216/2312 04010KT P6SM -RA OVC009 TEMPO 2216/2217 2SM +RA BR SCT009 OVC025 FM230100 04007KT 4SM -RA BR OVC004 FM230700 03006KT 2SM -RA BR OVC003
NOTAMs
Click for the latest NOTAMs
NOTAMs are issued by the DoD/FAA and will open in a separate window not controlled by AirNav.

 

 
 

Would you like to see your business listed on this page?

 If your business provides an interesting product or service to pilots, flight crews, aircraft, or users of the Mc Crory/Morton Airport, you should consider listing it here.  To start the listing process, click on the button below
 
Add a business
 

Other Pages about Mc Crory/Morton Airport

Update a link
 
Copyright © AirNav, LLC. All rights reserved. Privacy Policy  Contact